Starlink 1255

operational
NORAD ID: 45399 Int'l Des: 2020-019 Owner: SPXS Country: US Constellation: starlink
LEOCIRCULAR

Starlink 1255について

説明を読み込み中...

リアルタイム位置

3D地球を読み込み中...

次回通過

高度履歴

Altitude vs Time

uPlot chart will show altitude changes over time

軌道要素

1 45399U 20019AR 26061.47250574 .00087951 00000-0 15142-2 0 9996
2 45399 53.0433 137.4361 0001915 260.0637 100.0155 15.50362509329311
Epoch: Mar 2, 2026 • Age: 42 hours

現在のステータス

高度 431.2 km
速度 7.65 km/s
衛星直下点 -50.59°S, 52.02°W
打ち上げ日 Mar 18, 2020
運用期間 5.9 years
タイプ internet

技術仕様

分類 Payload
質量 260.00 kg
乾燥質量 248.00 kg
総質量 260.00 kg
長さ 0.20 m
直径 2.80 m
スパン 9.00 m
形状 Box + pan
製造者 SPXS
バスタイプ Starlink
フェーズステータス In Orbit
所有者/国 SPXS/US

大規模コンステレーション

Loading constellations...